Flag Weather past 2 weeks in Kugluktuk, Nunavut Territory, Canada

Now
12 °F

Passing clouds.


Feels Like: -4 °F
Forecast: 1 / 33 °F
Wind: 15 mph from Southwest

Location: Coppermine

Current Time: Oct 30, 2014 at 10:24:52 PM

Latest Report: Oct 30, 2014 at 10:00 PM


Visibility: 15 mi

Pressure: 29.90 "Hg

Humidity: 79%

Dew point: 7 °F

Location of KugluktukLocation

Historic Weather in Kugluktuk — Graph

°F

Kugluktuk temperature yesterday

Maximum temperature yesterday: 18 °F (at 5:00 PM)
Minimum temperature yesterday: 3 °F (at 11:00 AM)
Average temperature yesterday: 12 °F

Past Weeks' High & Low Weather Summary

 TemperatureHumidityPressure
High32 °F (Oct 30, 1:00 PM)100% (Oct 18, 8:00 AM)30.24 "Hg (Oct 18, 8:00 AM)
Low3 °F (Oct 27, 12:00 PM)62% (Oct 23, 5:00 AM)29.39 "Hg (Oct 20, 9:00 PM)
Average19 °F85%29.92 "Hg
* Reported Oct 15 9:00 PM — Oct 30 9:00 PM, Kugluktuk, Weather by CustomWeather, © 2014

Note: Actual official high and low records may vary slightly from our data, if they occured in-between our weather recording intervals... More about our weather records

Advertising

Kugluktuk weather history for previous 24 hours

 ConditionsComfort  
Time TempWeatherWind HumidityBarometerVisibility
9:00 PM
Oct 30
14 °FPassing clouds.22 mph79%29.89 "Hg15 mi
8:00 PM16 °FLow level haze.17 mph79%29.89 "Hg15 mi
7:00 PM19 °FPartly sunny.17 mph79%29.88 "Hg15 mi
6:00 PM19 °FPartly sunny.16 mph86%29.88 "Hg15 mi
5:00 PM25 °FPartly sunny.14 mph80%29.86 "Hg15 mi
4:00 PM27 °FPartly sunny.18 mph86%29.83 "Hg15 mi
3:00 PM32 °FOvercast.15 mph80%29.82 "Hg15 mi
2:00 PM32 °FScattered showers. More clouds than sun.20 mph80%29.81 "Hg15 mi
1:00 PM32 °FScattered showers. More clouds than sun.17 mph80%29.82 "Hg15 mi
12:00 PM30 °FScattered showers. Mostly cloudy.17 mph86%29.84 "Hg15 mi
11:00 AM30 °FLight snow. Mostly cloudy.15 mph80%29.86 "Hg12 mi
10:00 AM30 °FMostly cloudy.16 mph80%29.87 "Hg15 mi
9:00 AM28 °FOvercast.20 mph86%29.89 "Hg15 mi
8:00 AM28 °FOvercast.16 mph86%29.91 "Hg15 mi
7:00 AM27 °FMostly cloudy.15 mph86%29.94 "Hg15 mi
6:00 AM25 °FPassing clouds.12 mph86%29.95 "Hg15 mi
5:00 AM25 °FOvercast.14 mph80%29.96 "Hg15 mi
4:00 AM23 °FPassing clouds.18 mph74%29.97 "Hg15 mi
3:00 AM19 °FPassing clouds.8 mph79%29.98 "Hg15 mi
2:00 AM16 °FClear.6 mph86%29.98 "Hg15 mi
1:00 AM18 °FClear.3 mph86%29.99 "Hg15 mi
12:00 AM16 °FClear.6 mph79%29.99 "Hg15 mi
11:00 PM
Oct 29
18 °FClear.3 mph79%30.00 "Hg15 mi
10:00 PM14 °FPassing clouds.9 mph85%30.01 "Hg15 mi
Weather by CustomWeather, © 2014

See weather overviewHow to use our weather pages